Погода в Сеяхе

Погода в Сеяхе : погода сейчас, прогноз погоды и архив. Всё, что Вы хотите узнать о погоде в Сеяхе!

Хотите узнать прогноз погоды в Сеяхе? Тогда Вам сюда: Погода в Сеяхе

Поиск расширенной информации на нашем сайте:

Полезная информация: http://wpc.moscow/ продажа дачной садовой мебели.

Другие новости

Новости СМИ2

Главная страница сайта

Новости сайта

02.10.2013

Напоминаем, что на нашем новом сайте вы можете получить высокодетализированные прогнозы погоды по пунктам России, СНГ и мира (включающие важные для авиации метеовеличины, такие как направление и скорость ветра, видимость, явления погоды, количество и форма облачности, нижняя и верхняя граница облачности), а также ознакомиться с разнообразными материалами по авиационной метеорологии и подборкой полезных ссылок на эту тему.

Сайт Метеоцентр.Азия посвящён разработке технологий оптимизации авиаметеорологического обслуживания, включая проектирование и перспективное создание нескольких автоматизированных авиаметеорологических систем:
- система выпуска высокодетальных прогностических карт явлений погоды для нижнего воздушного пространства по России и ближнему зарубежью;
- система верификации прогнозов TAF (выпускаемых синоптиками официальных АМСГ РФ и ближнего зарубежья) и AUTOTAF (выпускаемых сайтом Метеоцентр.Азия) - выявление ошибок, онлайн-сопоставление с фактической погодой METAR, автоматическое внесение коррективов в прогнозы при резком отклонении фактической погоды от прогноза, подсчёт оправдываемости прогнозов по элементам и в целом;
- система обработки, анализа и отображения авиаметеорологической информации для применения провайдерами метеорологической информации.

Рекомендуем: Оптовым покупателям женские халаты оптом от нашего лучшего отечественного Российского производителя

Погода в Сеяхе - сегодня

Время (UTC), дата Ветер
(°,м/с) 
Видим.   Явления Облачность Т
(°С)
Тd
(°С)
f(%) Тe
(°С)
Pmin
(гПа)
dP
(гПа)
Po
(мм)
O2
(г/м3)
Тmin Tmax R s Состояние
почвы
03 24.03.17 250 (З) 9-11{13}  20000 м    10/10 720 м 
[Sc]
-0.7 -1.5 94 -5  999.4  748  302  -3.2    39  неравномерный
сухой снег
100% 
06 24.03.17 240 (ЮЗ) 6{12}  20000 м    10/10 210 м 
[St]
-0.1 -0.9 94 -4  999.7  0.3  748  302           
09 24.03.17 250 (З) 20000 м    10/10 210 м 
[St]
+0.3 -0.7 93 -4  999.4  -0.2  748  301           
12 24.03.17 240 (ЮЗ) 20000 м    10/10 180 м 
[St]
-0.6 -1.6 93 -4  999.6  0.2  748  302           
15 24.03.17 230 (ЮЗ) 20000 м    9/9 570 м 
[Sc]
-0.8 -1.5 95 -4  999.2  -0.4  748  302    +0.4       
18 24.03.17 250 (З) 20000 м    10/10 240 м 
[St]
-1.2 -2 94 -5  999  -0.2  748  303           
21 24.03.17 220 (ЮЗ) 20000 м    9/9 700 м 
[St]
-3.1 -4.3 91 -7  998.5  -0.5  747  305           
00 25.03.17 250 (З) 5{12}  20000 м    10/10 210 м 
[St]
-2.6 -3.1 96 -6  998.3  -0.2  747  304           
03 25.03.17 210 (ЮЗ) 5{10}  20000 м    9/0 средняя 
[Ac trans]
-7.1 -7.8 95 -11  998.2  -0.2  747  310  -7.5      39  неравномерный
мокрый или
старый снег
100% 
06 25.03.17 220 (ЮЗ) 20000 м    9/9 240 м 
[St]
-3.9 -5 92 -8  997.1  -1.1  746  306           
09 25.03.17 220 (ЮЗ) 6{11}  20000 м    9/6 1000 м средняя, верхняя 
[Sc|Ac trans|Ci fib]
-4.2 -6.4 85 -8  996.3  -0.8  746  306           
12 25.03.17 240 (ЮЗ) 7-11{12}  20000 м    10/10 270 м 
[St]
-3.6 -4.6 93 -8  995.1  -1.1  745  305           
15 25.03.17 230 (ЮЗ) 6{11}  20000 м    10/10 210 м 
[St]
-3.5 -4.1 96 -8  993.9  -1.2  744  304    -3.5       
18 25.03.17 280 (З) 4000 м  слаб. снег  10/0 средняя 
[As op]
-3.9 -4.5 96 -8  993.2  -0.7  743  304           
21 25.03.17 280 (З) 20000 м  в посл. час снег  10/10 570 м 
[Sc]
-7.5 -8.3 94 -12  993.5  0.3  743  309           
00 26.03.17 240 (ЮЗ) 5{11}  20000 м  {снег}  10/10 270 м 
[St]
-5.3 -6.3 93 -9  992.8  -0.7  743  306           
03 26.03.17 260 (З) 6{11}  20000 м    10/10 240 м 
[St]
-4.1 -4.9 94 -8  992.5  -0.3  743  304  -8         
09 26.03.17 110 (В) 20000 м    8/4 360 м верхняя 
[Sc|Ci fib]
-6.5 -10.2 75 -9  994.7  1.6  744  308           
12 26.03.17 210 (ЮЗ) 20000 м    9/0 средняя 
[Ac trans]
-7 -9.4 83 -10  996.5  1.8  746  309           
15 26.03.17 220 (ЮЗ) 20000 м    10/10 960 м 
[Sc]
-4.4 -5.6 91 -9  996.4  0.1  746  306    -4       
18 26.03.17 250 (З) 9-11{14}  20000 м    10/0 средняя 
[Ac As]
-4.6 -5.6 93 -10  996.7  0.3  746  306           
21 26.03.17 250 (З) 8-11{13}  20000 м    10/0 средняя 
[Ac As]
-7.6 -8.5 93 -13  997.6  0.9  746  310           
00 27.03.17 190 (Ю) 6{11}  4000 м  дымка  8/0 средняя, верхняя 
[Ac trans|Ci fib]
-10 -11.2 91 -15  997.2  -0.4  746  313           
03 27.03.17 180 (Ю) 8-10{12}  20000 м    9/0 средняя, верхняя 
[Ac trans|Ci fib]
-11.5 -12.7 91 -18  995.3  -1.9  745  314  -12.2      39  неравномерный
мокрый или
старый снег
100% 
06 27.03.17 170 (Ю) 9-12{12}  20000 м    9/3 330 м средняя, верхняя 
[Ac trans|Ci fib]
-10 -11.8 87 -17  993.3  -2  743  312           
Время (UTC), дата Ветер
(°,м/с) 
Видим.   Явления Облачность Т
(°С)
Тd
(°С)
f(%) Тe
(°С)
Pmin
(гПа)
dP
(гПа)
Po
(мм)
O2
(г/м3)
Тmin Tmax R s Состояние
почвы

Для получения пояснительной информации подведите курсор к названию столбца.

ПОГОДА в Сеяхе - архив

Всё, что Вы хотите узнать о погоде в Сеяхе - удобно и подробно!

Выберите нужную дату (начиная с 1 января 2015* года) и нажмите кнопку "Найти".
Будут отображены архивные сводки погоды по пункту Сеяха, начиная с указанной даты.


Отображать данные в формате CSV (для использования в таблицах Excel)


Внимание! Наш архив погоды предназначен исключительно для личного некоммерческого использования в познавательных целях. Если Вам необходимы официальные справки о состоянии погоды (для производственных, юридических, коммерческих и т.п. целей), обращайтесь в органы Росгидромета.

*Примечание: данная дата относится к архиву по метеостанциям СССР (Россия, СНГ, Балтия).
Архив по метеостанциям Зарубежной Европы и Азии (кроме Китая) хранится 10 дней, по другим регионам земного шара (Китай, Африка, Америка, Австралия, Океания) - 1 день.

Сеяха - район местоположения метеостанции


Название, широта, долгота, высота метеостанции:
Сеяха 70.2°ш. 72.5°д. 16 м над ур. моря [Российская Федерация]

Дополнительная информация

В oтличие oт бoльшинства пoгoдных сайтoв мы публикуем пoдрoбную метеoинфoрмацию в детальнoм прoфессиoнальнoм фoрмате.

Характеристики температуры и влажнoсти вoздуха измеряются на высoте 2 м в тени вдали oт зданий и деревьев.
Скoрoсть ветра измеряется на высoте 10 м (на урoвне рoста челoвека скoрoсть ветра ниже в 1.5-2 раза). Если метеoстанция нахoдится в гoрoде или в лесу, тo скoрoсть ветра занижена на 2-4 м/с пo сравнению с oткрытым местoм. Скoрoсть ветра над акватoриями крупных рек и oзёр, а также на вершинах хoлмoв на 2-5 м/с выше, чем в oбычных услoвиях.
Атмoсфернoе давление в разных тoчках местнoсти мoжет значительнo oтличаться oт давления на метеoстанции, в зависимoсти oт услoвий рельефа (при пoдъёме на 10 м давление пoнижается примернo на 1 мм рт.ст.).